EW3857 Weather Reports


Display with metric or nautical units.
time (UTC)temp
F
wind
direction
speed
MPH
gust
MPH
rain 1hr
in
rain 24hr
in
rain mn
in
humidity
%
barometer
mb
20260510204727 79 136 3.0 3.0 0.00 0.00 0.00 48 1018.5
20260510204223 79 137 2.0 2.0 0.00 0.00 0.00 47 1018.6
20260510203720 79 147 2.0 2.0 0.00 0.00 0.00 48 1018.5
20260510203217 79 349 1.0 1.0 0.00 0.00 0.00 48 1018.6
20260510202712 79 351 0.0 1.0 0.00 0.00 0.00 46 1018.7
20260510202207 79 82 1.0 1.0 0.00 0.00 0.00 45 1018.8
20260510201705 79 65 1.0 2.0 0.00 0.00 0.00 49 1018.8
20260510201201 78 57 1.0 1.0 0.00 0.00 0.00 48 1019.1
20260510200657 79 50 1.0 2.0 0.00 0.00 0.00 47 1019.0
20260510200155 78 58 2.0 2.0 0.00 0.00 0.00 43 1019.0
20260510195653 78 66 2.0 2.0 0.00 0.00 0.00 44 1018.9
20260510195149 78 63 3.0 3.0 0.00 0.00 0.00 41 1018.8
20260510194648 78 58 3.0 3.0 0.00 0.00 0.00 40 1018.8
20260510194145 78 63 3.0 3.0 0.00 0.00 0.00 41 1018.8
20260510193640 78 64 4.0 5.0 0.00 0.00 0.00 42 1019.0
20260510193136 78 61 3.0 3.0 0.00 0.00 0.00 48 1018.9
20260510192631 78 70 2.0 2.0 0.00 0.00 0.00 53 1019.2
20260510192127 78 64 3.0 5.0 0.00 0.00 0.00 49 1019.0
20260510191624 78 86 2.0 3.0 0.00 0.00 0.00 51 1019.2
20260510191120 77 75 2.0 2.0 0.00 0.00 0.00 52 1019.2
20260510190617 77 88 2.0 2.0 0.00 0.00 0.00 51 1019.3
20260510190115 77 74 3.0 3.0 0.00 0.00 0.00 53 1019.2
20260510185611 77 70 2.0 2.0 0.00 0.00 0.00 54 1019.3
20260510185109 77 65 3.0 5.0 0.00 0.00 0.00 53 1019.4
20260510184606 78 61 3.0 3.0 0.00 0.00 0.00 54 1019.5
20260510184102 77 61 2.0 2.0 0.00 0.00 0.00 52 1019.4
20260510183557 77 50 3.0 3.0 0.00 0.00 0.00 51 1019.4
20260510183052 77 76 1.0 2.0 0.00 0.00 0.00 51 1019.5
20260510182549 77 67 2.0 2.0 0.00 0.00 0.00 52 1019.2
20260510182044 77 52 4.0 5.0 0.00 0.00 0.00 49 1019.4
20260510181543 77 57 1.0 2.0 0.00 0.00 0.00 50 1019.6
20260510181038 78 85 2.0 2.0 0.00 0.00 0.00 46 1019.6
20260510180530 78 90 1.0 2.0 0.00 0.00 0.00 46 1019.6
20260510180027 78 105 1.0 1.0 0.00 0.00 0.00 47 1019.7
20260510175521 78 72 1.0 1.0 0.00 0.00 0.00 52 1019.8
20260510175013 77 62 1.0 1.0 0.00 0.00 0.00 55 1019.8
20260510174511 77 64 1.0 1.0 0.00 0.00 0.00 52 1019.6
20260510174008 77 51 1.0 1.0 0.00 0.00 0.00 59 1019.9
20260510173503 77 68 1.0 1.0 0.00 0.00 0.00 61 1019.7
20260510172959 77 93 1.0 1.0 0.00 0.00 0.00 66 1020.0
20260510172455 77 33 1.0 1.0 0.00 0.00 0.00 63 1020.2
20260510171951 77 357 1.0 1.0 0.00 0.00 0.00 69 1020.0
20260510171448 77 354 1.0 1.0 0.00 0.00 0.00 72 1019.9
20260510170945 77 3 1.0 1.0 0.00 0.00 0.00 72 1019.8
20260510170442 76 319 1.0 1.0 0.00 0.00 0.00 74 1019.9
20260510165937 76 279 0.0 1.0 0.00 0.00 0.00 77 1020.0
20260510165434 75 234 0.0 1.0 0.00 0.00 0.00 76 1020.1
20260510164931 75 195 2.0 2.0 0.00 0.00 0.00 78 1020.2
20260510164429 74 150 2.0 2.0 0.00 0.00 0.00 80 1020.1
20260510163929 73 135 2.0 2.0 0.00 0.00 0.00 80 1020.0
20260510163425 73 152 2.0 2.0 0.00 0.00 0.00 82 1020.3
20260510162920 73 131 2.0 2.0 0.00 0.00 0.00 82 1020.3
20260510162417 73 143 1.0 2.0 0.00 0.00 0.00 83 1020.3
20260510161913 73 100 1.0 1.0 0.00 0.00 0.00 84 1020.2
20260510161408 72 1 1.0 1.0 0.00 0.00 0.00 84 1020.1
20260510160905 71 65 2.0 2.0 0.00 0.00 0.00 84 1020.3
20260510160402 71 62 2.0 2.0 0.00 0.00 0.00 83 1020.4
20260510155856 71 56 1.0 1.0 0.00 0.00 0.00 83 1020.2
20260510155353 70 59 2.0 2.0 0.00 0.00 0.00 85 1020.1
20260510154849 70 60 2.0 2.0 0.00 0.00 0.00 85 1020.2
20260510154345 70 56 2.0 2.0 0.00 0.00 0.00 85 1020.3
20260510153840 70 60 2.0 2.0 0.00 0.00 0.00 86 1020.2
20260510153336 69 83 1.0 1.0 0.00 0.00 0.00 86 1020.2
20260510152833 69 60 0.0 1.0 0.00 0.00 0.00 86 1020.2
20260510152330 69 68 1.0 2.0 0.00 0.00 0.00 87 1020.0
20260510151826 69 59 1.0 1.0 0.00 0.00 0.00 87 1020.0
20260510151324 68 141 1.0 2.0 0.00 0.00 0.00 88 1020.1
20260510150820 68 54 2.0 2.0 0.00 0.00 0.00 88 1020.1
20260510150316 68 334 1.0 1.0 0.00 0.00 0.00 89 1020.2
20260510145812 68 111 1.0 1.0 0.00 0.00 0.00 90 1020.3
20260510145309 68 111 1.0 1.0 0.00 0.00 0.00 90 1020.1
20260510144805 68 130 5.0 5.0 0.00 0.00 0.00 90 1020.1
20260510144302 67 141 4.0 5.0 0.00 0.00 0.00 90 1020.1
20260510143801 67 136 3.0 3.0 0.00 0.00 0.00 91 1020.1
20260510143258 67 139 4.0 5.0 0.00 0.00 0.00 91 1020.2
20260510142754 67 134 2.0 3.0 0.00 0.00 0.00 91 1020.4
20260510142251 67 149 4.0 5.0 0.00 0.00 0.00 92 1020.3
20260510141749 67 134 5.0 5.0 0.00 0.00 0.00 91 1020.4
20260510141246 67 133 2.0 2.0 0.00 0.00 0.00 92 1020.2
20260510140743 67 131 2.0 3.0 0.00 0.00 0.00 92 1020.1
20260510140238 66 134 4.0 5.0 0.00 0.00 0.00 93 1020.2
20260510135732 66 129 4.0 5.0 0.00 0.00 0.00 93 1020.3
20260510135228 66 147 3.0 3.0 0.00 0.00 0.00 93 1020.1
20260510134726 66 137 2.0 2.0 0.00 0.00 0.00 93 1020.3
20260510134223 66 136 3.0 3.0 0.00 0.00 0.00 94 1020.0
20260510133718 66 142 3.0 3.0 0.00 0.00 0.00 94 1020.0
20260510133214 66 149 2.0 2.0 0.00 0.00 0.00 94 1020.0
20260510132710 66 174 2.0 2.0 0.00 0.00 0.00 94 1020.2
20260510132208 66 191 1.0 1.0 0.00 0.00 0.00 95 1020.0
20260510131705 65 247 0.0 1.0 0.00 0.00 0.00 95 1020.2
20260510131204 65 250 0.0 1.0 0.00 0.00 0.00 95 1019.9
20260510130659 65 228 1.0 1.0 0.00 0.00 0.00 96 1019.7
20260510130156 65 178 2.0 2.0 0.00 0.00 0.00 96 1019.7
20260510125653 65 244 0.0 1.0 0.00 0.00 0.00 96 1019.8
20260510125149 65 257 0.0 0.0 0.00 0.00 0.00 97 1019.7
20260510124646 65 301 0.0 0.0 0.00 0.00 0.00 97 1019.7
20260510124143 65 280 0.0 0.0 0.00 0.00 0.00 98 1019.6
20260510123638 65 272 0.0 0.0 0.00 0.00 0.00 98 1019.5
20260510123134 64 266 0.0 0.0 0.00 0.00 0.00 98 1019.5
20260510122631 64 266 0.0 0.0 0.00 0.00 0.00 98 1019.6
20260510122127 64 266 0.0 0.0 0.00 0.00 0.00 98 1019.5
20260510121624 64 266 0.0 0.0 0.00 0.00 0.00 99 1019.3
20260510121121 64 266 0.0 0.0 0.00 0.00 0.00 99 1019.3
20260510120619 64 266 0.0 0.0 0.00 0.00 0.00 99 1019.5
20260510120114 64 260 0.0 0.0 0.00 0.00 0.00 99 1019.1
20260510115611 64 272 0.0 0.0 0.00 0.00 0.00 99 1019.3
20260510115108 64 272 0.0 0.0 0.00 0.00 0.00 99 1019.1
20260510114604 64 271 0.0 0.0 0.00 0.00 0.00 99 1019.0
20260510114100 64 296 0.0 0.0 0.00 0.00 0.00 99 1018.9
20260510113555 64 294 0.0 1.0 0.00 0.00 0.00 99 1018.7
20260510113053 64 348 3.0 3.0 0.00 0.00 0.00 99 1018.7
20260510112550 64 357 3.0 3.0 0.00 0.00 0.00 99 1018.8
20260510112046 64 328 1.0 1.0 0.00 0.00 0.00 99 1018.5
20260510111543 64 286 0.0 0.0 0.00 0.00 0.00 99 1018.5
20260510111039 64 286 0.0 0.0 0.00 0.00 0.00 99 1018.6
20260510110535 64 316 1.0 1.0 0.00 0.00 0.00 99 1018.2
20260510110031 64 331 1.0 2.0 0.00 0.00 0.00 99 1018.2
20260510105526 64 316 1.0 2.0 0.00 0.00 0.00 99 1017.8
20260510105021 63 340 3.0 3.0 0.00 0.00 0.00 99 1017.9
20260510104518 64 301 1.0 1.0 0.00 0.00 0.00 99 1017.8
20260510104015 63 281 0.0 0.0 0.00 0.00 0.00 99 1017.5
20260510103512 63 281 0.0 0.0 0.00 0.00 0.00 99 1017.6
20260510103009 63 281 0.0 0.0 0.00 0.00 0.00 99 1017.6
20260510102505 63 280 0.0 0.0 0.00 0.00 0.00 99 1017.7
20260510102001 63 276 0.0 0.0 0.00 0.00 0.00 99 1017.6
20260510101458 63 269 0.0 0.0 0.00 0.00 0.00 99 1017.6
20260510100957 63 269 0.0 0.0 0.00 0.00 0.00 99 1017.8
20260510100452 64 276 0.0 0.0 0.00 0.00 0.00 99 1017.6
20260510095949 64 275 0.0 0.0 0.00 0.00 0.00 99 1017.6
20260510095445 64 276 0.0 0.0 0.00 0.00 0.00 99 1017.5
20260510094944 64 276 0.0 0.0 0.00 0.00 0.00 99 1017.9
20260510094439 64 277 0.0 0.0 0.00 0.00 0.00 99 1017.5
20260510093935 64 278 0.0 0.0 0.00 0.00 0.00 99 1017.5
20260510093430 64 278 0.0 0.0 0.00 0.00 0.00 99 1017.4
20260510092927 64 278 0.0 0.0 0.00 0.00 0.00 99 1017.4
20260510092425 64 282 0.0 0.0 0.00 0.00 0.00 99 1017.1
20260510091924 64 279 0.0 0.0 0.00 0.00 0.00 99 1017.3
20260510091422 64 279 0.0 0.0 0.00 0.00 0.00 99 1017.1
20260510090918 64 280 0.0 0.0 0.00 0.00 0.00 99 1017.1
20260510090415 64 280 0.0 0.0 0.00 0.00 0.00 99 1016.9
20260510085911 63 276 0.0 0.0 0.00 0.00 0.00 99 1016.9
20260510085406 63 276 0.0 0.0 0.00 0.00 0.00 99 1017.0
20260510084901 63 295 0.0 0.0 0.00 0.00 0.00 99 1017.2
20260510084359 63 295 0.0 0.0 0.00 0.00 0.00 99 1017.1
20260510083855 63 295 0.0 0.0 0.00 0.00 0.00 99 1016.6
20260510083352 63 296 0.0 0.0 0.00 0.00 0.00 99 1016.9
20260510082847 63 296 0.0 0.0 0.00 0.00 0.00 99 1016.6
20260510082345 63 297 0.0 0.0 0.00 0.00 0.00 99 1016.6
20260510081844 63 297 0.0 0.0 0.00 0.00 0.00 99 1016.9
20260510081340 63 299 1.0 1.0 0.00 0.00 0.00 99 1016.6
20260510080837 63 291 0.0 0.0 0.00 0.00 0.00 99 1016.5
20260510080331 63 289 0.0 0.0 0.00 0.00 0.00 99 1016.6
20260510075828 62 312 1.0 1.0 0.00 0.00 0.00 99 1016.4
20260510075326 62 299 1.0 2.0 0.00 0.00 0.00 99 1016.4
20260510074822 63 260 0.0 0.0 0.00 0.00 0.00 99 1016.2
20260510074320 63 259 0.0 0.0 0.00 0.00 0.00 99 1016.3
20260510073815 63 259 0.0 0.0 0.00 0.00 0.00 99 1016.5
20260510073306 63 249 0.0 0.0 0.00 0.00 0.00 99 1016.3
20260510072802 62 249 0.0 0.0 0.00 0.00 0.00 99 1016.2
20260510072259 62 242 1.0 1.0 0.00 0.00 0.00 99 1016.1
20260510071755 62 239 1.0 1.0 0.00 0.00 0.00 99 1016.2
20260510071251 61 249 0.0 1.0 0.00 0.00 0.00 99 1016.2
20260510070750 61 255 0.0 0.0 0.00 0.00 0.00 99 1016.3
20260510070246 60 255 0.0 0.0 0.00 0.00 0.00 99 1016.2
20260510065741 60 255 0.0 0.0 0.00 0.00 0.00 99 1016.3
20260510065238 60 255 0.0 0.0 0.00 0.00 0.00 99 1016.2
20260510064734 60 255 0.0 0.0 0.00 0.00 0.00 99 1016.3
20260510064232 60 255 1.0 1.0 0.00 0.00 0.00 99 1016.2
20260510063728 60 255 0.0 0.0 0.00 0.00 0.00 99 1016.2
20260510063225 59 255 0.0 0.0 0.00 0.00 0.00 99 1016.2
20260510062721 59 255 0.0 0.0 0.00 0.00 0.00 99 1016.2
20260510062218 59 255 0.0 0.0 0.00 0.00 0.00 99 1016.4
20260510061713 59 255 0.0 0.0 0.00 0.00 0.00 99 1016.3
20260510061211 59 255 0.0 1.0 0.00 0.00 0.00 99 1016.2
20260510060707 59 256 1.0 1.0 0.00 0.00 0.00 99 1016.2
20260510060203 59 256 0.0 0.0 0.00 0.00 0.00 99 1016.5
20260510055700 59 256 0.0 0.0 0.00 0.00 0.00 99 1016.5
20260510055158 59 256 0.0 0.0 0.00 0.00 0.00 99 1016.5
20260510054653 60 256 0.0 0.0 0.00 0.00 0.00 99 1016.5
20260510054149 60 256 0.0 0.0 0.00 0.00 0.00 99 1016.5
20260510053648 60 256 0.0 0.0 0.00 0.00 0.00 99 1016.8
20260510053145 59 256 0.0 0.0 0.00 0.00 0.00 99 1016.9
20260510052641 60 256 0.0 0.0 0.00 0.00 0.00 98 1016.5
20260510052137 60 256 0.0 0.0 0.00 0.00 0.00 98 1016.6
20260510051633 60 256 0.0 0.0 0.00 0.00 0.00 98 1016.7
20260510051130 60 256 0.0 0.0 0.00 0.00 0.00 98 1016.6
20260510050627 60 256 0.0 0.0 0.00 0.00 0.00 98 1016.6
20260510050124 60 256 0.0 0.0 0.00 0.00 0.00 98 1016.7
20260510045621 60 256 0.0 0.0 0.00 0.00 0.00 98 1016.8
20260510045117 60 256 0.0 0.0 0.00 0.00 0.00 98 1016.7
20260510044614 60 256 0.0 0.0 0.00 0.00 0.00 98 1016.9
20260510044111 60 256 0.0 0.0 0.00 0.00 0.00 98 1016.6
20260510043607 61 256 0.0 0.0 0.00 0.00 0.00 98 1016.8
20260510043103 61 256 1.0 1.0 0.00 0.00 0.00 98 1016.7
20260510042601 61 256 0.0 0.0 0.00 0.00 0.00 98 1016.5
20260510042057 61 256 0.0 1.0 0.00 0.00 0.00 98 1016.7
20260510041554 61 256 1.0 1.0 0.00 0.00 0.00 98 1016.5
20260510041052 61 254 1.0 2.0 0.00 0.00 0.00 98 1016.7
20260510040548 61 252 0.0 0.0 0.00 0.00 0.00 98 1016.6
20260510040044 61 252 0.0 0.0 0.00 0.00 0.00 98 1016.9
20260510035541 61 252 0.0 0.0 0.00 0.00 0.00 98 1016.9
20260510035040 61 252 0.0 0.0 0.00 0.00 0.00 97 1017.2
20260510034539 61 252 0.0 0.0 0.00 0.00 0.00 97 1016.6
20260510034035 62 252 0.0 0.0 0.00 0.00 0.00 97 1016.7
20260510033531 62 252 0.0 0.0 0.00 0.00 0.00 97 1016.6
20260510033029 62 252 1.0 1.0 0.00 0.00 0.00 97 1016.9
20260510032526 62 252 0.0 0.0 0.00 0.00 0.00 97 1017.0
20260510032020 62 252 0.0 1.0 0.00 0.00 0.00 97 1016.6
20260510031516 62 252 0.0 1.0 0.00 0.00 0.00 97 1016.7
20260510031012 62 252 0.0 0.0 0.00 0.00 0.00 97 1016.5
20260510030508 62 252 0.0 0.0 0.00 0.00 0.00 96 1016.5
20260510030005 62 252 0.0 0.0 0.00 0.00 0.00 96 1016.5
20260510025502 62 252 0.0 0.0 0.00 0.00 0.00 96 1016.4
20260510024959 63 252 0.0 0.0 0.00 0.00 0.00 96 1016.5
20260510024450 63 252 0.0 0.0 0.00 0.00 0.00 96 1016.2
20260510023946 63 252 0.0 0.0 0.00 0.00 0.00 96 1016.6
20260510023443 63 252 0.0 0.0 0.00 0.00 0.00 96 1016.1
20260510022940 63 252 0.0 0.0 0.00 0.00 0.00 95 1016.1
20260510022439 64 252 0.0 0.0 0.00 0.00 0.00 95 1016.2
20260510021938 64 252 0.0 0.0 0.00 0.00 0.00 95 1016.1
20260510021436 64 252 1.0 1.0 0.00 0.00 0.00 95 1015.9
20260510020932 64 252 0.0 1.0 0.00 0.00 0.00 95 1015.9
20260510020427 64 252 1.0 1.0 0.00 0.00 0.00 95 1015.7
20260510015923 64 252 0.0 0.0 0.00 0.00 0.00 95 1015.8
20260510015419 65 252 0.0 0.0 0.00 0.00 0.00 94 1015.6
20260510014914 65 252 0.0 0.0 0.00 0.00 0.00 94 1015.7
20260510014412 65 252 0.0 0.0 0.00 0.00 0.00 94 1015.4
20260510013908 65 252 0.0 0.0 0.00 0.00 0.00 94 1015.4
20260510013403 66 252 1.0 1.0 0.00 0.00 0.00 93 1015.4
20260510012858 66 252 1.0 1.0 0.00 0.00 0.00 93 1015.2
20260510012354 66 251 1.0 1.0 0.00 0.00 0.00 93 1015.2
20260510011848 66 251 0.0 0.0 0.00 0.00 0.00 93 1015.3
20260510011344 67 251 0.0 0.0 0.00 0.00 0.00 93 1015.1
20260510010840 67 251 0.0 0.0 0.00 0.00 0.00 91 1015.0
20260510010338 67 251 0.0 0.0 0.00 0.00 0.00 91 1015.0
20260510005834 68 251 0.0 0.0 0.00 0.00 0.00 90 1014.9
20260510005331 68 251 0.0 0.0 0.00 0.00 0.00 89 1014.8
20260510004829 68 250 0.0 0.0 0.00 0.00 0.00 88 1014.8
20260510004326 68 250 0.0 0.0 0.00 0.00 0.00 88 1014.8
20260510003823 68 250 0.0 0.0 0.00 0.00 0.00 87 1014.9
20260510003320 69 250 0.0 0.0 0.00 0.00 0.00 86 1014.7
20260510002819 69 250 0.0 0.0 0.00 0.00 0.00 85 1014.6
20260510002316 69 250 0.0 0.0 0.00 0.00 0.00 85 1014.4
20260510001813 69 248 0.0 0.0 0.00 0.00 0.00 84 1014.4
20260510001311 70 250 0.0 0.0 0.00 0.00 0.00 84 1014.4
20260510000806 70 253 0.0 0.0 0.00 0.00 0.00 83 1014.3
20260510000305 70 253 0.0 0.0 0.00 0.00 0.00 83 1014.3
20260509235802 70 253 0.0 0.0 0.00 0.00 0.00 83 1014.3
20260509235258 71 243 0.0 0.0 0.00 0.00 0.00 82 1014.2
20260509234754 71 254 0.0 0.0 0.00 0.00 0.00 82 1014.1
20260509234250 71 259 0.0 0.0 0.00 0.00 0.00 81 1014.1
20260509233749 71 250 0.0 1.0 0.00 0.00 0.00 81 1014.1
20260509233246 71 236 0.0 1.0 0.00 0.00 0.00 81 1014.1
20260509232742 72 245 1.0 1.0 0.00 0.00 0.00 81 1014.0
20260509232239 72 237 1.0 1.0 0.00 0.00 0.00 80 1014.1
20260509231736 72 235 1.0 2.0 0.00 0.00 0.00 79 1013.9
20260509231233 72 253 0.0 0.0 0.00 0.00 0.00 79 1014.0
20260509230730 72 235 0.0 1.0 0.00 0.00 0.00 79 1014.1
20260509230227 72 235 1.0 1.0 0.00 0.00 0.00 79 1014.0
20260509225722 72 195 1.0 2.0 0.00 0.00 0.00 79 1014.2
20260509225218 72 201 1.0 1.0 0.00 0.00 0.00 78 1014.2
20260509224714 73 157 3.0 3.0 0.00 0.00 0.00 78 1014.1
20260509224211 73 194 1.0 1.0 0.00 0.00 0.00 77 1013.9
20260509223708 73 194 0.0 1.0 0.00 0.00 0.00 76 1014.0
20260509223205 74 352 1.0 1.0 0.00 0.00 0.00 75 1014.0
20260509222702 74 259 2.0 2.0 0.00 0.00 0.00 75 1014.0
20260509222158 74 350 1.0 1.0 0.00 0.00 0.00 74 1013.8
20260509221653 74 276 0.0 0.0 0.00 0.00 0.00 72 1013.7
20260509221149 74 297 1.0 1.0 0.00 0.00 0.00 74 1013.7
20260509220646 75 0 2.0 2.0 0.00 0.00 0.00 71 1013.7
20260509220142 75 319 1.0 2.0 0.00 0.00 0.00 72 1013.7
20260509215638 76 232 1.0 1.0 0.00 0.00 0.00 71 1013.7
20260509215135 75 258 0.0 1.0 0.00 0.00 0.00 72 1013.5
20260509214632 75 276 1.0 1.0 0.00 0.00 0.00 70 1013.4
20260509214129 75 256 0.0 0.0 0.00 0.00 0.00 72 1013.5
20260509213625 75 220 1.0 1.0 0.00 0.00 0.00 71 1013.5
20260509213121 75 209 0.0 1.0 0.00 0.00 0.00 70 1013.4
20260509212620 76 282 1.0 1.0 0.00 0.00 0.00 70 1013.5
20260509212116 76 281 0.0 0.0 0.00 0.00 0.00 71 1013.4
20260509211612 76 336 1.0 1.0 0.00 0.00 0.00 70 1013.4
20260509211108 75 285 0.0 0.0 0.00 0.00 0.00 70 1013.3
20260509210559 75 271 0.0 0.0 0.00 0.00 0.00 70 1013.2
20260509210056 75 199 2.0 3.0 0.00 0.00 0.00 72 1013.3
20260509205550 75 343 2.0 2.0 0.00 0.00 0.00 70 1013.5